Flag for U.S.A. Weather past 2 weeks in Sidney, Montana, U.S.A.

Now
63 °F

Clear.


Feels Like: 63 °F
Forecast: 52 / 86 °F
Wind: No wind

Location: Sidney-Richland

Current Time: Sep 17, 2014 at 8:45:42 PM

Latest Report: Sep 17, 2014 at 8:15 PM


Visibility: 10 mi

Pressure: 29.91 "Hg

Humidity: 52%

Dew point: 45 °F

Location of SidneyLocation

Historic Weather in Sidney — Graph

°F

Sidney temperature yesterday

Maximum temperature yesterday: 75 °F (at 3:55 PM)
Minimum temperature yesterday: 34 °F (at 3:55 AM)
Average temperature yesterday: 52 °F

Past Weeks' High & Low Weather Summary

 TemperatureHumidityPressure
High82 °F (Sep 7, 2:35 PM)100% (Sep 5, 2:15 AM)30.54 "Hg (Sep 5, 2:15 AM)
Low27 °F (Sep 12, 3:55 AM)24% (Sep 6, 2:35 PM)29.57 "Hg (Sep 3, 6:15 PM)
Average51 °F69%30.08 "Hg
* Reported Sep 2 7:15 PM — Sep 17 7:35 PM, Sidney, Weather by CustomWeather, © 2014

Note: Actual official high and low records may vary slightly from our data, if they occured in-between our weather recording intervals... More about our weather records

Advertising

Sidney weather history for previous 24 hours

 ConditionsComfort  
Time TempWeatherWind HumidityBarometerVisibility
7:35 PM
Sep 17
66 °FSunny.No wind43%29.90 "Hg10 mi
7:15 PMN/ASunny.No windN/A29.90 "Hg10 mi
6:55 PMN/ASunny.7 mphN/A29.90 "Hg10 mi
6:35 PM72 °FSunny.8 mph38%29.91 "Hg10 mi
6:15 PM73 °FSunny.9 mph36%29.91 "Hg10 mi
5:55 PMN/ASunny.9 mphN/A29.90 "Hg10 mi
5:35 PM75 °FSunny.9 mph31%29.90 "Hg10 mi
5:15 PMN/ASunny.12 mphN/A29.91 "Hg10 mi
4:55 PMN/ASunny.9 mphN/A29.91 "Hg10 mi
4:35 PMN/ASunny.10 mphN/A29.91 "Hg10 mi
4:15 PM79 °FSunny.12 mph30%29.92 "Hg10 mi
3:55 PM79 °FSunny.10 mph30%29.92 "Hg10 mi
3:35 PM79 °FSunny.8 mph30%29.93 "Hg10 mi
3:15 PM79 °FSunny.8 mph30%29.93 "Hg10 mi
2:55 PM79 °FSunny.13 mph30%29.92 "Hg10 mi
2:35 PM79 °FSunny.12 mph30%29.93 "Hg10 mi
2:15 PM79 °FSunny.9 mph28%29.93 "Hg10 mi
1:55 PM77 °FSunny.10 mph30%29.93 "Hg10 mi
1:35 PM77 °FSunny.14 mph32%29.94 "Hg10 mi
1:15 PM77 °FSunny.13 mph30%29.94 "Hg10 mi
12:55 PM75 °FSunny.12 mph31%29.95 "Hg10 mi
12:35 PM75 °FSunny.13 mph31%29.95 "Hg10 mi
11:55 AM73 °FSunny.14 mph41%29.95 "Hg10 mi
11:35 AM70 °FSunny.3 mph50%29.96 "Hg10 mi
11:15 AM64 °FSunny.No wind60%29.97 "Hg5 mi
10:55 AMN/ASunny.No windN/A29.96 "Hg9 mi
10:35 AM63 °FSunny.No wind56%29.97 "Hg10 mi
10:15 AM63 °FSunny.3 mph59%29.97 "Hg10 mi
9:55 AMN/ASunny.No windN/A29.97 "Hg9 mi
9:35 AM57 °FSunny.No wind63%29.97 "Hg7 mi
9:15 AM55 °FSunny.No wind67%29.97 "Hg10 mi
8:55 AM52 °FSunny.No wind72%29.97 "Hg10 mi
8:35 AM52 °FSunny.No wind72%29.97 "Hg10 mi
8:15 AM50 °FSunny.No wind76%29.96 "Hg10 mi
7:55 AM46 °FSunny.3 mph87%29.96 "Hg8 mi
7:35 AM45 °FClear.No wind81%29.96 "Hg10 mi
7:15 AM39 °FClear.No wind93%29.96 "Hg10 mi
6:55 AM37 °FClear.No wind93%29.96 "Hg10 mi
6:35 AM39 °FClear.No wind87%29.96 "Hg10 mi
6:15 AM39 °FClear.No wind87%29.95 "Hg10 mi
5:55 AM37 °FClear.No wind93%29.95 "Hg10 mi
5:35 AM39 °FClear.No wind87%29.95 "Hg10 mi
5:15 AM39 °FClear.No wind87%29.95 "Hg10 mi
4:55 AM39 °FClear.No wind87%29.94 "Hg10 mi
4:35 AM39 °FClear.No wind81%29.94 "Hg10 mi
4:15 AM39 °FClear.No wind87%29.94 "Hg10 mi
3:55 AM41 °FClear.No wind87%29.94 "Hg10 mi
3:35 AM43 °FClear.No wind81%29.94 "Hg10 mi
3:15 AM43 °FClear.No wind76%29.94 "Hg10 mi
2:55 AM41 °FClear.No wind81%29.95 "Hg10 mi
2:35 AM43 °FClear.No wind76%29.95 "Hg10 mi
2:15 AM43 °FClear.No wind81%29.95 "Hg10 mi
1:55 AM43 °FClear.No wind81%29.95 "Hg10 mi
1:35 AM43 °FClear.No wind81%29.95 "Hg10 mi
1:15 AM43 °FClear.3 mph81%29.95 "Hg10 mi
12:55 AM45 °FClear.No wind76%29.95 "Hg10 mi
12:35 AM45 °FClear.3 mph76%29.95 "Hg10 mi
12:15 AM46 °FClear.No wind71%29.95 "Hg10 mi
11:55 PM
Sep 16
45 °FClear.No wind76%29.95 "Hg10 mi
11:35 PM46 °FClear.No wind71%29.95 "Hg10 mi
11:15 PM46 °FClear.3 mph71%29.94 "Hg10 mi
10:55 PM48 °FClear.3 mph66%29.94 "Hg10 mi
10:35 PM48 °FClear.5 mph66%29.93 "Hg10 mi
10:15 PM48 °FClear.No wind71%29.93 "Hg10 mi
9:55 PM52 °FClear.3 mph62%29.93 "Hg10 mi
9:35 PM50 °FClear.3 mph67%29.93 "Hg10 mi
9:15 PM50 °FClear.6 mph67%29.93 "Hg10 mi
8:55 PM52 °FClear.3 mph62%29.93 "Hg10 mi
8:35 PMN/AClear.5 mphN/A29.92 "Hg10 mi
8:15 PM54 °FClear.5 mph63%29.92 "Hg8 mi
Weather by CustomWeather, © 2014

See weather overviewHow to use our weather pages